RH
80 55 46 27 24 29 36 25 18 10 10 9 18 33 38 45 50 78 46 62 78 88 93 93 95 93 91 92 92 92 91 90 89 90 91 92 93 93 93 93 92 89 85 80 81 83 82 82 86
75 37 29 32 34 31 21 23 20 16 9 16 21 23 39 49 42 53 64 60 74 85 94 95 96 95 94 92 93 93 92 90 90 89 91 92 91 92 93 94 93 91 87 81 80 83 81 86 89
39 34 30 38 45 37 31 22 23 19 13 15 26 37 40 47 47 55 65 76 78 89 90 91 96 97 95 94 93 94 94 93 92 91 91 92 92 92 93 94 93 92 88 82 81 84 86 88 90
38 31 33 36 53 38 30 21 19 20 22 28 35 34 38 40 58 64 75 73 79 84 85 96 97 97 95 95 94 94 94 94 93 92 91 92 92 93 94 94 93 92 89 86 84 87 90 89 90
36 37 44 53 52 34 22 14 22 24 28 29 26 21 27 19 37 52 81 77 85 91 93 95 97 96 94 94 94 95 95 94 93 92 92 93 93 93 94 94 94 93 92 92 91 90 90 90 90
32 36 44 47 40 24 21 19 14 18 26 24 18 21 26 20 18 22 72 94 91 94 94 95 94 96 96 95 95 96 96 96 94 94 93 93 94 94 94 94 94 94 94 94 91 91 91 91 90
34 35 46 41 30 26 23 18 11 14 12 12 23 21 19 12 15 21 26 34 37 49 81 91 95 95 96 99 98 97 96 96 96 95 96 95 96 96 94 94 95 94 95 94 91 91 92 91 91
32 36 56 42 29 27 16 17 13 10 10 12 12 11 15 12 15 22 39 42 46 50 58 59 58 59 85 97 100 99 98 96 96 96 97 98 97 97 96 96 96 95 95 95 92 92 92 92 93
25 32 38 34 21 20 12 13 11 12 9 12 12 12 20 28 34 41 46 48 50 52 52 55 69 65 65 68 89 97 99 98 98 98 98 99 99 98 96 97 97 97 97 96 93 93 94 94 94
22 34 32 23 17 14 12 14 15 10 10 12 14 31 40 40 43 47 50 53 52 54 53 53 54 68 67 58 78 82 94 99 99 99 99 96 94 99 96 97 98 98 98 97 95 94 94 96 98
22 22 22 18 10 11 11 14 12 12 12 12 19 48 46 44 46 48 50 50 51 50 53 54 54 66 74 72 79 80 90 92 97 95 96 92 89 95 99 99 99 99 98 99 98 98 99 98 99
20 13 13 12 13 12 16 14 12 14 19 44 47 44 45 49 50 50 51 53 53 52 52 55 55 60 64 69 75 86 90 91 80 89 94 96 96 94 92 94 93 95 95 97 99 99 99 98 98
18 18 19 19 14 14 13 13 14 16 43 40 40 42 46 46 48 49 50 51 51 53 52 56 54 62 59 61 67 85 87 92 92 89 93 96 94 94 90 89 91 93 90 91 97 99 98 98 98
21 22 21 18 16 16 15 13 11 26 38 39 42 46 47 48 50 50 52 54 54 51 52 53 53 60 61 65 67 72 87 91 90 92 90 87 94 96 95 93 91 89 85 86 93 99 98 98 98
22 22 20 18 19 16 14 17 17 38 37 41 43 46 49 50 50 54 54 56 56 53 51 54 53 56 62 63 66 68 74 77 88 91 88 87 88 93 95 94 93 90 85 82 90 98 98 99 98
30 28 26 17 19 17 13 22 45 41 44 51 50 49 51 53 54 54 54 56 57 57 56 55 53 59 63 66 69 67 68 77 84 90 88 83 82 86 92 94 92 91 89 85 88 93 98 98 98
35 32 31 22 17 18 17 37 51 47 48 58 61 61 58 58 58 56 56 58 58 60 58 58 59 65 69 70 72 72 76 80 86 89 89 84 83 88 94 94 92 94 91 91 88 89 96 98 98
31 35 42 20 15 18 20 75 63 56 60 66 70 68 68 67 66 59 60 59 60 60 59 60 63 68 70 70 71 73 75 74 81 88 87 84 84 81 90 93 94 91 93 92 92 92 94 94 95
31 29 26 21 16 23 26 68 70 65 68 76 76 78 76 74 66 63 62 63 63 65 67 68 69 70 72 77 80 77 73 68 69 78 82 81 83 81 89 93 92 92 91 89 92 94 95 98 96
33 34 29 23 21 24 47 80 77 68 74 77 79 81 79 76 73 69 67 66 69 72 74 68 65 67 68 68 70 73 75 73 69 69 79 83 81 84 86 93 90 97 96 90 95 95 95 96 97
33 30 29 25 31 33 47 65 75 66 69 68 73 76 76 76 80 76 71 72 74 78 77 67 66 68 68 67 67 70 73 76 75 71 69 76 78 80 83 81 86 90 96 94 92 94 92 94 97
38 26 25 30 39 43 34 44 75 75 79 77 79 89 86 80 74 72 75 78 80 73 71 72 68 70 72 74 77 85 90 95 82 80 74 79 77 77 80 83 86 89 93 97 93 91 93 92 95
31 29 35 38 44 52 49 47 76 75 84 86 87 80 81 85 79 80 81 81 70 66 69 69 71 73 74 76 82 94 95 92 86 84 84 77 84 87 84 84 84 88 90 93 90 87 91 91 90
32 38 44 51 52 66 46 38 52 93 86 88 82 78 77 87 85 83 80 80 72 68 70 73 78 79 77 84 91 96 96 96 94 86 90 88 85 82 90 88 90 96 92 98 91 93 87 91 90
39 44 75 73 87 54 46 48 62 92 86 86 89 88 80 94 91 91 91 90 83 78 77 80 86 87 79 82 84 94 96 96 96 93 95 95 94 95 97 96 97 98 96 96 97 95 98 93 94
41 40 60 67 73 74 52 69 86 85 80 80 83 78 81 94 94 94 92 93 85 84 86 86 87 88 88 94 94 90 95 96 95 91 94 95 96 97 95 98 97 97 97 96 98 96 98 98 99
47 51 38 56 69 82 73 85 87 79 82 88 85 83 95 95 95 94 92 92 86 89 89 92 95 92 93 96 96 96 96 96 96 90 92 93 93 92 96 96 96 95 96 95 96 98 98 98 99
36 40 68 81 80 83 90 93 86 96 94 96 98 96 91 94 95 94 93 94 87 90 90 89 92 95 96 96 96 96 96 95 96 95 93 95 95 92 93 93 93 93 94 93 95 96 95 95 98
50 55 60 62 76 87 97 90 89 88 90 96 98 95 98 97 98 95 94 93 95 93 92 90 94 96 96 98 97 98 96 96 96 94 96 96 96 95 92 90 91 91 91 91 94 93 90 92 94
56 62 72 98 76 82 91 90 87 94 90 92 96 91 94 95 97 95 93 94 94 94 93 91 91 93 98 99 99 99 99 98 96 95 97 98 98 95 91 90 88 88 89 90 91 93 90 92 93
Wind_Speed
8 7 1 5 6 6 3 4 3 7 3 4 3 10 7 4 3 5 4 5 5 5 5 5 4 5 4 6 6 5 7 12 15 16 16 16 15 14 14 13 12 12 13 14 12 11 10 9 7
5 4 5 3 7 4 5 4 7 5 4 4 8 3 8 6 5 3 5 8 6 6 5 4 2 4 6 6 6 5 5 8 12 14 15 15 15 14 14 12 11 10 11 12 11 12 11 8 7
4 3 4 6 4 3 4 5 8 9 6 3 5 6 5 3 7 2 6 7 8 6 5 5 5 2 3 5 6 6 5 5 7 11 14 14 14 13 13 12 11 10 11 11 10 11 10 8 8
3 5 5 5 4 2 3 10 7 5 8 9 6 9 4 7 3 6 5 5 7 5 5 6 6 5 6 5 5 6 6 5 6 7 10 12 13 13 12 12 11 10 10 10 10 10 9 8 7
5 3 5 3 1 3 4 6 9 10 5 5 3 4 4 7 10 10 7 5 6 4 3 4 6 7 6 5 5 4 4 4 4 4 6 9 11 12 11 11 10 10 10 10 9 8 8 8 7
5 3 4 3 2 4 4 5 6 10 9 8 9 7 2 5 7 10 8 10 10 8 7 7 10 12 5 5 7 7 5 4 4 5 6 8 9 10 11 11 10 10 10 10 9 9 9 8 6
5 4 5 4 3 2 3 6 5 2 4 7 2 5 2 7 8 11 16 17 19 20 16 11 9 7 7 9 6 6 10 8 8 9 8 8 7 8 9 10 10 9 10 10 10 10 10 9 8
5 5 0 2 3 3 4 2 4 5 4 3 2 4 2 6 9 8 15 15 17 17 15 15 16 17 13 6 8 9 6 8 9 8 7 6 7 7 8 8 9 9 10 10 10 10 9 9 8
4 5 2 3 2 3 3 3 7 2 4 4 4 4 12 10 7 16 14 19 15 15 17 16 16 16 15 15 10 9 11 7 7 7 8 6 4 6 7 8 10 10 10 10 11 10 9 9 9
5 5 5 4 2 1 2 1 1 3 6 4 5 17 12 16 17 18 17 14 15 17 16 16 17 16 15 12 13 14 10 6 5 5 4 6 8 5 7 8 11 11 11 10 10 10 9 7 4
2 4 3 4 5 2 4 1 2 2 3 3 10 7 10 15 15 14 13 14 13 13 12 16 14 13 14 12 9 7 6 8 6 9 7 7 7 6 5 4 5 5 9 4 6 5 4 5 4
1 5 4 3 5 4 0 4 3 2 7 17 14 11 10 15 14 14 13 13 12 12 14 14 14 12 12 9 7 8 8 8 8 11 10 7 5 7 7 6 8 7 6 7 6 4 5 5 5
3 4 4 2 7 4 2 1 2 7 12 15 15 16 17 14 12 11 9 10 10 12 14 14 14 11 12 11 8 7 8 7 9 9 11 8 8 8 8 8 8 8 8 9 8 6 6 6 6
5 4 8 6 7 4 4 3 5 13 13 15 17 15 14 15 14 13 17 17 17 16 16 14 13 11 12 10 11 8 6 7 8 8 9 13 11 8 8 9 10 11 10 9 10 9 8 7 6
5 7 8 4 3 7 8 1 2 12 15 15 14 13 13 14 14 15 13 14 15 14 16 17 17 15 14 14 12 9 8 8 7 9 11 13 14 13 11 10 10 11 11 14 11 7 5 5 5
4 3 4 5 3 1 7 2 5 8 13 12 12 12 12 14 13 12 11 11 11 12 14 15 14 13 14 14 11 9 9 8 9 7 9 13 12 15 13 10 10 10 10 11 10 10 8 8 7
4 3 3 8 2 2 3 4 5 8 10 12 9 9 10 9 13 12 12 11 13 13 14 16 17 18 16 12 11 11 11 8 8 8 7 12 13 11 9 12 11 11 11 11 11 11 10 9 7
4 3 4 5 4 3 3 2 5 7 11 9 8 8 9 10 10 11 12 12 12 13 13 14 14 17 19 13 10 9 9 9 8 8 9 12 9 11 9 10 15 12 11 12 11 13 10 8 8
2 2 5 5 4 2 1 6 3 4 8 8 8 8 8 10 9 11 13 13 14 13 16 16 15 16 15 13 13 12 13 13 12 9 11 14 12 11 10 9 13 15 15 16 14 12 12 8 7
6 5 6 6 4 4 5 3 2 3 4 4 5 7 9 12 14 16 17 17 16 17 18 18 19 18 15 12 12 13 12 12 12 13 12 14 13 11 9 9 10 16 8 14 14 15 9 9 9
9 6 5 7 2 2 6 3 5 3 6 4 3 2 5 11 15 16 17 16 16 16 16 17 18 19 17 18 13 11 11 10 11 11 12 11 13 9 10 13 12 7 9 16 15 15 17 12 8
10 8 7 4 4 5 3 9 4 6 5 2 3 5 7 10 10 11 16 18 18 19 17 18 20 19 16 18 15 16 13 13 11 13 13 12 14 14 12 14 12 10 8 16 13 12 13 11 12
9 7 9 6 5 3 3 2 1 8 6 2 3 6 7 7 9 12 14 15 16 17 18 18 19 18 17 17 16 13 14 12 12 11 15 17 15 15 14 14 14 11 8 9 15 18 18 15 13
1 4 3 5 3 6 8 9 5 6 4 4 2 4 7 8 11 11 11 12 13 15 17 17 17 17 18 18 18 16 16 16 13 12 11 10 11 11 13 15 13 6 6 2 14 20 21 16 14
4 5 1 3 1 8 6 6 4 5 4 5 4 4 6 6 9 11 13 13 14 17 17 15 17 18 19 20 18 18 16 16 16 14 10 11 9 8 7 5 3 3 5 10 7 9 12 15 11
8 8 6 6 5 4 2 6 5 3 7 7 6 5 4 6 7 9 11 11 14 15 16 17 18 19 19 18 17 15 16 10 10 11 11 9 8 7 11 6 4 1 1 3 3 10 2 2 3
5 9 8 6 2 1 3 4 3 7 6 4 5 5 4 5 6 8 10 10 13 13 15 16 17 17 18 18 16 16 16 16 14 15 12 11 12 9 10 4 8 7 9 13 16 7 10 8 8
8 6 4 2 4 5 4 4 6 12 10 6 2 3 3 3 5 7 9 9 11 11 12 15 15 15 16 17 14 13 13 16 15 15 18 17 15 14 10 9 11 12 12 17 23 12 12 15 12
1 3 3 2 4 4 1 7 3 11 9 8 4 4 1 3 4 6 8 9 8 9 10 12 14 15 16 16 15 13 14 16 17 16 18 18 15 14 11 13 15 17 16 18 24 15 17 17 15
6 3 6 3 5 2 5 7 3 5 7 8 6 5 3 3 4 5 7 7 7 8 10 11 13 13 14 14 15 14 15 17 18 20 20 19 16 15 13 14 18 19 19 21 19 20 17 19 22
Wind_Direction
320 311 110 44 49 58 284 259 310 312 359 8 34 88 104 64 46 150 272 16 82 84 112 132 146 146 137 129 129 128 131 131 131 130 129 131 133 131 128 130 131 135 137 138 134 129 129 129 130
323 321 42 80 79 55 283 260 351 281 297 131 71 71 51 60 18 53 355 357 85 109 95 95 124 165 165 164 149 149 152 145 141 137 136 136 139 140 136 134 133 136 142 142 135 133 134 131 139
310 21 76 89 112 157 270 301 300 287 339 241 102 54 31 38 15 31 314 96 111 106 120 138 147 175 201 182 172 173 170 163 153 146 143 140 143 143 138 138 138 138 143 146 141 137 138 143 148
26 9 32 84 153 265 267 298 264 270 34 35 131 52 28 347 52 328 13 78 98 122 145 150 150 169 178 190 203 192 190 185 176 159 147 147 147 146 146 145 147 144 147 147 146 141 142 150 149
33 54 62 73 120 266 281 310 343 65 79 26 26 115 77 7 0 354 347 46 92 105 117 152 168 178 189 187 196 211 215 209 196 181 164 157 155 154 155 155 156 154 151 145 144 141 148 156 156
31 88 75 198 177 278 315 357 359 47 87 104 83 112 44 57 11 1 26 39 37 33 26 19 359 340 303 197 192 183 202 211 213 215 202 183 173 165 165 164 165 165 160 154 157 155 159 165 166
101 66 181 151 203 95 321 333 52 23 32 359 101 90 130 36 12 37 39 36 35 28 17 15 7 351 335 319 277 213 183 195 207 208 211 199 190 179 178 174 174 175 170 166 169 168 169 171 176
101 89 44 224 161 130 330 24 333 64 44 285 45 54 0 31 19 29 47 41 39 33 30 25 22 16 352 324 315 290 252 205 203 215 219 210 196 191 191 184 186 186 181 175 178 181 179 177 183
112 58 327 270 109 172 353 65 325 326 80 43 51 70 42 27 68 52 36 29 27 25 24 18 12 10 4 12 339 316 294 266 263 222 218 204 199 199 197 196 194 192 192 188 184 191 191 189 184
88 97 226 262 152 177 155 70 246 31 8 87 102 51 28 35 38 40 35 30 27 18 12 13 7 7 2 3 7 3 331 316 268 249 232 224 216 195 195 196 197 195 197 195 196 196 195 190 188
110 169 210 267 292 231 153 151 288 54 73 250 90 81 40 48 43 43 37 33 18 11 9 10 3 5 1 358 359 1 352 341 305 279 249 225 225 215 201 196 203 197 201 201 204 195 206 198 189
8 227 140 278 337 346 288 143 315 108 37 92 91 96 77 56 45 31 25 22 16 14 5 3 359 2 359 349 353 348 343 337 347 299 260 234 224 221 213 206 204 200 198 203 198 198 193 214 201
211 316 325 286 264 245 202 232 185 99 93 87 83 65 57 55 47 38 26 18 12 15 7 4 353 360 352 347 344 341 334 323 321 326 289 243 233 224 210 212 205 202 200 203 201 198 193 210 206
312 272 281 279 211 214 224 224 173 99 114 85 72 64 56 49 37 25 20 13 9 359 360 356 354 356 346 344 337 326 315 305 317 307 303 309 244 232 214 209 207 209 205 208 205 194 198 205 200
288 318 322 270 227 210 151 271 75 112 97 83 71 65 56 43 35 30 18 11 2 356 347 353 348 349 348 338 330 322 309 315 305 298 308 301 305 243 220 215 214 206 205 211 214 201 193 196 198
347 27 342 293 85 311 117 200 15 5 90 72 56 47 46 38 28 23 15 7 359 348 348 344 343 343 339 330 323 315 312 302 291 297 295 296 295 318 251 222 217 209 206 203 212 207 203 210 205
357 238 237 315 270 144 139 135 350 15 66 67 47 38 32 23 21 14 8 2 357 350 346 346 345 342 338 326 319 314 307 300 292 286 288 287 289 291 311 280 221 205 201 206 204 212 205 205 204
200 222 244 248 302 11 127 141 22 27 64 55 43 26 20 14 10 360 359 359 354 352 350 347 346 340 335 329 322 312 310 305 291 291 287 282 289 295 281 284 275 208 203 208 202 208 207 204 200
4 266 266 269 261 256 316 141 127 50 52 37 26 14 7 1 343 359 358 356 353 355 353 350 343 342 337 330 328 325 318 313 305 293 289 293 284 280 268 259 288 242 201 207 203 198 208 204 192
263 255 243 282 264 175 151 135 83 89 73 69 31 11 358 351 1 357 354 355 357 351 351 347 344 338 336 326 319 311 306 298 298 296 285 282 277 273 267 258 281 274 220 229 204 191 194 208 186
234 218 224 218 277 292 106 258 195 100 118 97 86 38 357 2 357 350 350 350 351 349 348 340 337 335 335 327 318 310 302 298 298 295 293 284 279 268 272 272 261 303 251 226 217 202 197 199 197
242 208 209 204 133 235 143 275 204 165 152 93 66 18 5 5 356 347 350 350 348 347 342 338 336 336 329 326 320 314 305 301 297 293 289 285 277 270 254 258 243 236 255 226 227 215 203 187 200
245 180 177 179 191 132 227 299 65 141 193 145 44 29 6 356 353 353 353 347 343 341 344 336 334 334 329 331 325 317 308 300 298 292 294 294 290 272 258 244 248 229 222 269 246 233 214 197 194
223 97 55 38 112 257 188 187 236 189 179 145 78 42 12 6 355 351 348 342 342 345 341 336 336 336 337 336 331 323 309 313 304 299 296 294 292 284 253 246 226 186 171 91 272 245 231 206 196
154 123 278 306 345 241 208 203 263 168 139 133 110 46 21 12 351 351 346 343 345 345 343 341 343 342 343 343 339 332 329 323 321 323 317 317 314 326 333 292 193 161 197 192 207 215 252 208 199
188 178 177 221 215 255 221 239 274 112 132 133 123 90 38 17 355 350 336 337 342 341 343 347 349 346 344 338 340 339 338 333 326 347 340 328 335 343 327 291 130 119 215 59 188 215 92 221 276
204 205 191 231 257 130 230 299 223 163 168 147 110 68 35 27 354 339 335 341 345 346 347 349 345 344 346 341 337 351 357 352 352 4 360 2 350 342 331 354 73 52 59 59 44 107 61 65 80
172 174 108 355 219 226 271 269 245 204 201 179 134 102 23 39 1 349 340 332 341 345 343 350 348 347 342 347 345 348 359 8 11 14 12 8 1 348 349 19 50 59 55 66 58 23 49 76 56
146 151 48 355 149 183 237 257 267 200 170 165 158 119 47 21 2 349 324 317 322 328 348 353 354 349 349 352 350 346 9 18 21 21 19 12 2 356 20 44 54 55 52 51 79 46 52 51 68
338 290 117 213 220 187 157 267 5 115 134 142 151 136 89 62 3 335 307 320 331 333 350 358 0 354 354 351 358 358 14 24 29 26 21 11 11 11 24 51 61 63 61 63 63 71 59 56 45